Cedar Rapids, IA

9:06 PM CST on February 20, 2017 (GMT -0600)
The Eastern Iowa Airport

Weather History for KCID - October, 2012

Change the Weather History Date:

Saturday, October 13, 2012

  Actual Average Record
Temperature  
Mean Temperature 55 °F 52 °F  
Max Temperature 65 °F 63 °F 89 °F (1975)
Min Temperature 45 °F 40 °F 20 °F (1917)
Degree Days  
Heating Degree Days 10 14  
Month to date heating degree days 231 152  
Since 1 July heating degree days 449 309  
Cooling Degree Days 0 0  
Month to date cooling degree days 0 8  
Year to date cooling degree days 1044 748  
Growing Degree Days 4 (Base 50)    
Moisture  
Dew Point 54 °F    
Average Humidity 97    
Maximum Humidity 100    
Minimum Humidity 93    
Precipitation  
Precipitation 0.61 in 0.08 in 1.74 in (2014)
Month to date precipitation 0.97 1.17  
Year to date precipitation 18.63 29.63  
Sea Level Pressure  
Sea Level Pressure 29.87 in    
Wind  
Wind Speed 11 mph (South)    
Max Wind Speed 21 mph    
Max Gust Speed 24 mph    
Visibility 6 miles    
Events Rain , Thunderstorm    
T = Trace of Precipitation, MM = Missing Value Source: NWS Daily Summary

Daily Weather History Graph

Daily Weather History Graph

Search for Another Location

Airport or City:

Trip Planner

Search our weather history database for the weather conditions in past years. The results will help you decide how hot, cold, wet, or windy it might be!

Date:

Astronomy

Oct. 13, 2012 Rise Set
Actual Time 7:17 AM CDT 6:27 PM CDT
Civil Twilight 6:49 AM CDT 6:55 PM CDT
Nautical Twilight 6:17 AM CDT 7:27 PM CDT
Astronomical Twilight 5:44 AM CDT 8:00 PM CDT
Moon 5:06 AM CDT (10/13) 5:12 PM CDT (10/13)
Length of Visible Light 12h 06m
Length of Day
11h 10m
Waning Crescent, 5% of the Moon is Illuminated
Oct 13
Waning Crescent
Oct 15
New
Oct 21
First Quarter
Oct 29
Full
Nov 6
Last Quarter

Hourly Weather History & Observations

Time (CDT) Temp. Windchill Dew Point Humidity Pressure Visibility Wind Dir Wind Speed Gust Speed Precip Events Conditions
12:13 AM 44.6 °F 39.2 °F 41.0 °F 87% 30.13 in 10.0 mi SE 10.4 mph - 0.00 in Rain , Thunderstorm Light Rain
12:34 AM 44.6 °F 38.4 °F 41.0 °F 87% 30.12 in 5.0 mi SSE 12.7 mph - N/A Rain Light Rain
12:52 AM 44.6 °F 39.2 °F 42.8 °F 93% 30.11 in 10.0 mi SSE 10.4 mph - N/A   Overcast
1:52 AM 46.4 °F 40.7 °F 42.8 °F 87% 30.06 in 10.0 mi SSE 12.7 mph 19.6 mph N/A Rain Light Rain
2:05 AM 46.4 °F 40.1 °F 42.8 °F 87% 30.03 in 10.0 mi SSE 15.0 mph 24.2 mph 0.00 in Rain Light Rain
2:52 AM 46.0 °F 41.9 °F 44.1 °F 93% 30.04 in 10.0 mi SSE 8.1 mph - 0.00 in   Overcast
3:18 AM 46.4 °F 41.5 °F 44.6 °F 93% 30.02 in 10.0 mi SE 10.4 mph - N/A   Overcast
3:52 AM 46.9 °F - 45.0 °F 93% 30.01 in 10.0 mi SSE 11.5 mph - N/A   Overcast
4:52 AM 48.2 °F - 46.4 °F 93% 30.01 in 10.0 mi SSE 11.5 mph - N/A   Overcast
5:52 AM 48.9 °F - 46.0 °F 90% 29.96 in 10.0 mi SE 11.5 mph - N/A   Overcast
6:26 AM 48.2 °F - 46.4 °F 93% 29.97 in 10.0 mi South 10.4 mph - N/A   Mostly Cloudy
6:52 AM 48.9 °F - 48.0 °F 97% 29.95 in 7.0 mi SSE 11.5 mph - 0.00 in Rain Light Rain
7:52 AM 50.0 °F - 50.0 °F 100% 29.95 in 5.0 mi South 8.1 mph - 0.03 in Rain Light Rain
8:18 AM 50.0 °F - 50.0 °F 100% 29.96 in 2.5 mi South 9.2 mph - 0.10 in Rain Heavy Rain
8:41 AM 51.8 °F - 51.8 °F 100% 29.97 in 2.5 mi South 13.8 mph - N/A Rain Heavy Rain
9:35 AM 51.8 °F - 51.8 °F 100% 29.92 in 1.5 mi South 16.1 mph 23.0 mph 0.14 in Rain , Thunderstorm Thunderstorms and Rain
9:43 AM 51.8 °F - 51.8 °F 100% 29.91 in 2.0 mi South 13.8 mph 24.2 mph N/A Rain Rain
9:52 AM 52.0 °F - 52.0 °F 100% 29.91 in 2.5 mi South 15.0 mph 21.9 mph 0.17 in Rain Light Rain
10:21 AM 53.6 °F - 53.6 °F 100% 29.89 in 4.0 mi South 15.0 mph - 0.06 in Rain Light Rain
10:52 AM 54.0 °F - 54.0 °F 100% 29.89 in 4.0 mi South 12.7 mph 19.6 mph 0.07 in Rain Light Rain
11:02 AM 53.6 °F - 53.6 °F 100% 29.88 in 4.0 mi South 12.7 mph - 0.00 in Rain Light Rain
11:12 AM 53.6 °F - 53.6 °F 100% 29.87 in 2.5 mi South 12.7 mph - N/A Rain Light Rain
11:52 AM 55.0 °F - 55.0 °F 100% 29.86 in 2.5 mi South 9.2 mph - 0.03 in Rain Light Rain
12:52 PM 57.9 °F - 57.9 °F 100% 29.83 in 2.5 mi South 16.1 mph 23.0 mph 0.00 in   Overcast
1:52 PM 59.0 °F - 59.0 °F 100% 29.79 in 2.5 mi South 13.8 mph - N/A   Overcast
1:59 PM 59.0 °F - 59.0 °F 100% 29.78 in 3.0 mi SSW 15.0 mph - N/A   Overcast
2:28 PM 60.8 °F - 60.8 °F 100% 29.77 in 4.0 mi South 10.4 mph - N/A   Overcast
2:52 PM 60.8 °F - 60.8 °F 100% 29.76 in 4.0 mi South 10.4 mph - N/A   Overcast
3:52 PM 63.0 °F - 62.1 °F 97% 29.76 in 5.0 mi South 12.7 mph - N/A   Overcast
4:52 PM 64.9 °F - 63.0 °F 93% 29.74 in 7.0 mi South 18.4 mph - N/A   Overcast
4:59 PM 64.4 °F - 62.6 °F 94% 29.73 in 7.0 mi South 18.4 mph - N/A   Overcast
5:52 PM 64.9 °F - 63.0 °F 93% 29.72 in 7.0 mi South 13.8 mph - N/A   Overcast
6:52 PM 64.4 °F - 62.6 °F 94% 29.74 in 7.0 mi South 16.1 mph - N/A   Overcast
7:36 PM 64.4 °F - 64.4 °F 100% 29.72 in 6.0 mi South 12.7 mph - N/A   Overcast
7:52 PM 64.0 °F - 64.0 °F 100% 29.72 in 5.0 mi South 12.7 mph 21.9 mph N/A   Overcast
8:28 PM 64.4 °F - 64.4 °F 100% 29.72 in 5.0 mi South 16.1 mph - N/A   Overcast
8:37 PM 64.4 °F - 64.4 °F 100% 29.72 in 5.0 mi South 11.5 mph - N/A   Overcast
8:52 PM 62.6 °F - 62.6 °F 100% 29.72 in 5.0 mi South 10.4 mph - N/A   Overcast
9:52 PM 63.0 °F - 63.0 °F 100% 29.72 in 5.0 mi South 5.8 mph - N/A   Scattered Clouds
10:52 PM 62.1 °F - 62.1 °F 100% 29.72 in 5.0 mi SSE 4.6 mph - N/A   Overcast
11:52 PM 62.6 °F - 62.6 °F 100% 29.69 in 9.0 mi South 9.2 mph - N/A Rain , Thunderstorm Light Rain